Lehigh Valley, PA

7:19 PM EST on January 19, 2017 (GMT -0500)
Lehigh Valley International

Weather History for KABE - March, 2014

Change the Weather History Date:

Sunday, March 30, 2014

  Actual Average Record
Temperature  
Mean Temperature 42 °F 44 °F  
Max Temperature 47 °F 55 °F 87 °F (1998)
Min Temperature 37 °F 33 °F 10 °F (1970)
Degree Days  
Heating Degree Days 23 21  
Month to date heating degree days 942 783  
Since 1 July heating degree days 5540 5092  
Cooling Degree Days 0 0  
Month to date cooling degree days 0 0  
Year to date cooling degree days 0 0  
Moisture  
Dew Point 39 °F    
Average Humidity 83    
Maximum Humidity 93    
Minimum Humidity 73    
Precipitation  
Precipitation 0.40 in 0.12 in 1.34 in (1974)
Month to date precipitation 2.39 3.27  
Year to date precipitation 11.38 9.00  
Snow  
Snow T in 0.00 in 1.00 in (1942)
Month to date snowfall 1.1 4.8  
Since 1 July snowfall 67.8 31.8  
Snow Depth 0.00 in    
Sea Level Pressure  
Sea Level Pressure 29.60 in    
Wind  
Wind Speed 13 mph (North)    
Max Wind Speed 25 mph    
Max Gust Speed 33 mph    
Visibility 7 miles    
Events Rain    
T = Trace of Precipitation, MM = Missing Value Source: NWS Daily Summary

Daily Weather History Graph

Daily Weather History Graph

Search for Another Location

Airport or City:

Trip Planner

Search our weather history database for the weather conditions in past years. The results will help you decide how hot, cold, wet, or windy it might be!

Date:

Astronomy

Mar. 30, 2014 Rise Set
Actual Time 6:48 AM EDT 7:24 PM EDT
Civil Twilight 6:21 AM EDT 7:51 PM EDT
Nautical Twilight 5:48 AM EDT 8:24 PM EDT
Astronomical Twilight 5:15 AM EDT 8:57 PM EDT
Moon 6:33 AM EDT (3/30) 7:34 PM EDT (3/30)
Length of Visible Light 13h 30m
Length of Day
12h 35m
Waning Crescent, 0% of the Moon is Illuminated
Mar 30
Waning Crescent
Mar 30
New
Apr 7
First Quarter
Apr 15
Full
Apr 22
Last Quarter

Hourly Weather History & Observations

Time (EDT) Temp. Windchill Dew Point Humidity Pressure Visibility Wind Dir Wind Speed Gust Speed Precip Events Conditions
12:30 AM 46.4 °F 41.5 °F 44.6 °F 93% 29.62 in 3.0 mi ENE 10.4 mph - 0.03 in Rain Light Rain
12:51 AM 46.9 °F - 45.0 °F 93% 29.62 in 2.5 mi ENE 12.7 mph - 0.04 in Rain Light Rain
12:58 AM 46.4 °F 41.5 °F 44.6 °F 93% 29.60 in 4.0 mi East 10.4 mph - 0.00 in   Overcast
1:51 AM 46.9 °F - 45.0 °F 93% 29.61 in 3.0 mi NNE 8.1 mph - 0.06 in Rain Light Rain
1:58 AM 46.4 °F 44.3 °F 44.6 °F 93% 29.61 in 2.0 mi NNW 4.6 mph - 0.00 in Rain Light Rain
2:51 AM 46.0 °F 42.5 °F 44.1 °F 93% 29.59 in 2.0 mi NNE 6.9 mph - 0.02 in Rain Light Rain
2:58 AM 46.4 °F 43.5 °F 44.6 °F 93% 29.59 in 2.5 mi NNE 5.8 mph - 0.01 in Rain Light Rain
3:13 AM 44.6 °F 39.7 °F 42.8 °F 93% 29.58 in 3.0 mi NNE 9.2 mph - 0.01 in Rain Light Rain
3:30 AM 44.6 °F 41.4 °F 42.8 °F 93% 29.55 in 5.0 mi North 5.8 mph - 0.01 in Rain Light Rain
3:51 AM 45.0 °F 42.6 °F 42.1 °F 90% 29.57 in 10.0 mi NE 4.6 mph - 0.02 in   Overcast
4:09 AM 44.6 °F 42.2 °F 42.8 °F 93% 29.55 in 10.0 mi NNE 4.6 mph - N/A   Overcast
4:51 AM 45.0 °F 41.2 °F 41.0 °F 86% 29.57 in 10.0 mi NNE 6.9 mph - 0.00 in Rain Light Rain
5:51 AM 45.0 °F 39.7 °F 41.0 °F 86% 29.57 in 10.0 mi NE 10.4 mph - 0.00 in   Overcast
6:51 AM 46.0 °F 41.9 °F 41.0 °F 83% 29.58 in 10.0 mi North 8.1 mph - N/A   Overcast
7:51 AM 46.0 °F 41.9 °F 41.0 °F 83% 29.58 in 10.0 mi North 8.1 mph - 0.00 in   Overcast
8:51 AM 46.0 °F 40.6 °F 39.9 °F 79% 29.58 in 10.0 mi North 11.5 mph - 0.00 in Rain Light Rain
9:22 AM 46.4 °F 40.7 °F 39.2 °F 76% 29.57 in 10.0 mi North 12.7 mph - 0.00 in Rain Light Rain
9:51 AM 46.9 °F - 39.9 °F 77% 29.57 in 9.0 mi North 19.6 mph 24.2 mph 0.00 in Rain Light Rain
10:32 AM 46.4 °F 41.1 °F 39.2 °F 76% 29.56 in 10.0 mi North 11.5 mph 23.0 mph 0.01 in   Overcast
10:51 AM 46.0 °F 40.2 °F 39.0 °F 76% 29.57 in 10.0 mi North 12.7 mph - 0.01 in   Overcast
11:51 AM 45.0 °F 37.9 °F 37.9 °F 76% 29.55 in 10.0 mi North 16.1 mph 24.2 mph 0.00 in Rain Light Rain
12:44 PM 42.8 °F 36.6 °F 37.4 °F 81% 29.56 in 2.5 mi North 11.5 mph - 0.05 in Rain Rain
12:51 PM 43.0 °F 38.8 °F 37.9 °F 82% 29.57 in 3.0 mi North 6.9 mph - 0.06 in Rain Rain
1:21 PM 42.8 °F 35.8 °F 37.4 °F 81% 29.56 in 2.5 mi North 13.8 mph - 0.07 in Rain Rain
1:31 PM 42.8 °F 36.6 °F 37.4 °F 81% 29.56 in 3.0 mi North 11.5 mph - 0.08 in Rain Light Rain
1:51 PM 42.1 °F 34.9 °F 36.0 °F 79% 29.57 in 3.0 mi NNW 13.8 mph 20.7 mph 0.10 in Rain Light Rain
2:51 PM 42.1 °F 37.1 °F 36.0 °F 79% 29.57 in 10.0 mi NNW 8.1 mph - 0.01 in   Overcast
3:26 PM 42.8 °F 34.8 °F 35.6 °F 76% 29.55 in 6.0 mi North 17.3 mph - 0.03 in Rain Rain
3:51 PM 42.1 °F 34.5 °F 36.0 °F 79% 29.55 in 10.0 mi North 15.0 mph 25.3 mph 0.04 in Rain Light Rain
4:51 PM 41.0 °F 32.2 °F 34.0 °F 76% 29.56 in 10.0 mi North 18.4 mph 24.2 mph 0.00 in   Overcast
5:51 PM 41.0 °F 34.7 °F 33.1 °F 73% 29.61 in 10.0 mi North 10.4 mph - N/A   Overcast
6:51 PM 41.0 °F 33.9 °F 33.1 °F 73% 29.64 in 10.0 mi NNW 12.7 mph 19.6 mph 0.01 in Rain Light Rain
7:51 PM 39.0 °F 29.9 °F 32.0 °F 76% 29.68 in 10.0 mi NNW 17.3 mph 27.6 mph 0.01 in Rain Light Rain
8:51 PM 37.9 °F 28.2 °F 30.9 °F 76% 29.69 in 10.0 mi NNW 18.4 mph 26.5 mph 0.05 in Rain Light Rain
9:51 PM 37.9 °F 28.5 °F 30.0 °F 73% 29.71 in 10.0 mi NNW 17.3 mph 25.3 mph 0.00 in Rain Light Rain
10:51 PM 37.9 °F 28.5 °F 30.0 °F 73% 29.73 in 10.0 mi NNW 17.3 mph 25.3 mph 0.01 in Rain Light Rain
11:51 PM 37.9 °F 28.2 °F 28.9 °F 70% 29.75 in 10.0 mi NNW 18.4 mph 27.6 mph 0.00 in   Overcast